Regional Weather Roundup
Issued by NWS

Home | Current Version | Previous Version | Graphics & Text | Print | Product List | Glossary On
Versions: 1 2 3 4 5 6 7 8 9 10 11 12 13 14 15 16 17 18 19 20 21 22 23 24 25 26 27 28 29 30 31 32 33 34 35 36 37 38 39 40 41 42 43 44 45 46 47 48 49 50
000
ASUS43 KMKX 212010
RWRWI

WISCONSIN REGIONAL WEATHER ROUNDUP
NATIONAL WEATHER SERVICE MILWAUKEE/SULLIVAN WI
300 PM CDT SAT APR 21 2018

NOTE: "FAIR" INDICATES FEW OR NO CLOUDS BELOW 12,000 FEET WITH NO
SIGNIFICANT WEATHER AND/OR OBSTRUCTIONS TO VISIBILITY.

WIZ001-002-006>008-014>016-023>028-212100-
NORTHWEST WISCONSIN

CITY           SKY/WX    TMP DP  RH WIND       PRES   REMARKS
SUPERIOR ARPT  FAIR      59  19  20 W5        30.35F
ASHLAND        FAIR      58   6  12 VRB3      30.36F
HAYWARD        FAIR      56  14  19 VRB5      30.35F
SIREN          FAIR      57  18  21 SE6       30.37S
CUMBERLAND     FAIR      48  16  27 CALM      30.37F
RICE LAKE      FAIR      53  17  24 W5        30.38F
CHETEK         FAIR      55  24  29 CALM      30.36F
LADYSMITH      FAIR      56  18  22 SE3       30.38F
EAU CLAIRE     FAIR      59  30  33 W10G17    30.35F
MENOMONIE      FAIR      58  27  30 CALM      30.37S
NEW RICHMOND   FAIR      56  20  24 SE3       30.37F
OSCEOLA        FAIR      56  27  32 S3        30.40F
$$

WIZ003>005-009-010-017-018-212100-
NORTH CENTRAL WISCONSIN

CITY           SKY/WX    TMP DP  RH WIND       PRES   REMARKS
MANITOWISH WTR FAIR      54  10  17 E3        30.35S
ARBOR VITAE    FAIR      57  11  16 CALM      30.34F
WOODRUFF       FAIR      57  11  16 CALM      30.34F
RHINELANDER    FAIR      55  16  21 MISG      30.35F
EAGLE RIVER    FAIR      54   7  15 CALM      30.34S
LAND O LAKES   FAIR      57   8  14 CALM      30.35S
PHILLIPS       FAIR      54  13  19 CALM      30.35F
TOMAHAWK       FAIR      55  18  23 SW3       30.36F
MEDFORD        FAIR      51  24  35 S3        30.37S
MERRILL          N/A     55  25  30 SW5       30.37F
$$

WIZ029-030-035-036-043>047-212100-
CENTRAL WISCONSIN

CITY           SKY/WX    TMP DP  RH WIND       PRES   REMARKS
WAUSAU         FAIR      54  26  34 W6        30.35F
MOSINEE        MOSUNNY   54  25  32 SW7       30.38F
MARSHFIELD     FAIR      55  27  34 NW5       30.36F
STEVENS POINT  FAIR      53  22  29 W5        30.38F
WAUPACA        FAIR      59  17  19 S5        30.38F
WAUTOMA        FAIR      56  29  35 W6        30.39F
WISC RAPIDS    FAIR      55  27  34 W7        30.38F
CAMP DOUGLAS   PTSUNNY   54  32  43 W6        30.39S
$$

WIZ011>013-019>022-031-037>040-048>050-212100-
NORTHEAST WISCONSIN

CITY           SKY/WX    TMP DP  RH WIND       PRES   REMARKS
ANTIGO         FAIR      52  24  34 W5        30.37F
SHAWANO        FAIR      59  19  20 S7        30.37F
OCONTO         FAIR      55  17  22 SW6       30.38F
STURGEON BAY   FAIR      54  16  22 SW12      30.39F
GREEN BAY      FAIR      51  24  34 S7        30.40F
MANITOWOC      FAIR      48  30  49 E6        30.41F
APPLETON       NOT AVBL
CLINTONVILLE   FAIR      56  17  22 S7        30.38F
OSHKOSH        FAIR      49  30  48 S7        30.40F
$$

WIZ032>034-041-042-053>061-212100-
SOUTHWEST WISCONSIN

CITY           SKY/WX    TMP DP  RH WIND       PRES   REMARKS
LA CROSSE      CLOUDY    57  34  41 S8        30.38F
SPARTA         CLOUDY    56  33  41 S7        30.39F
VIROQUA        CLOUDY    51  39  62 E5        30.38F
BOSCOBEL       CLOUDY    56  36  47 CALM      30.39F
PRAIRIE DU CHI CLOUDY    52  35  51 E5        30.39F
PLATTEVILLE    PTSUNNY   54  36  52 E9        30.39F
$$

WIZ056-057-062-063-064-067-068-212100-
SOUTH CENTRAL WISCONSIN

CITY           SKY/WX    TMP DP  RH WIND       PRES   REMARKS
REEDSBURG      CLOUDY    53  35  50 CALM      30.41S
BARABOO/DELLS  CLOUDY    50  29  43 W7        30.41S
LONE ROCK      CLOUDY    57  35  43 VRB3      30.39F
MINERAL POINT  FAIR      54  36  50 SE3       30.39F
MADISON        CLOUDY    53  30  41 CALM      30.41F
MIDDLETON      CLOUDY    55  32  42 CALM      30.41F
WATERTOWN      CLOUDY    50  29  44 S6        30.42S
MONROE         FAIR      54  32  43 SE5       30.39F
JANESVILLE     CLOUDY    55  34  44 CALM      30.42F
$$

WIZ051-052-058>065-066-070>072-212100-
SOUTHEAST WISCONSIN

CITY           SKY/WX    TMP DP  RH WIND       PRES   REMARKS
MILWAUKEE      CLOUDY    53  22  29 E7        30.43S
WAUKESHA       CLOUDY    52  19  28 NW8       30.43S
MILWAUKEE/TIMM CLOUDY    54  10  17 W7        30.43S
RACINE         CLOUDY    49  16  26 SE5       30.44S
BURLINGTON     CLOUDY    52  27  37 NW7       30.43S
KENOSHA        PTSUNNY   56  24  29 E6        30.41F
FOND DU LAC    FAIR      52  25  35 VRB5      30.41S
SHEBOYGAN      FAIR      57  26  30 SW5       30.40F
WEST BEND      FAIR      55  23  28 W5        30.41F
JUNEAU         PTSUNNY   52  32  47 CALM      30.42F
$$

LSZ147-162-212100-
LAKE SUPERIOR

STATION/POSITION TIME  TEMP    WIND        PRES    WAVE
                       AIR SEA DIR/SP/G            HT/PER
                 (UTC) (F)     (DEG/KT/KT) (MB)    (FT/S)
DEVILS ISLAND    2000   49     290/  6/  7 1028.7F
SAXON HARBOR     1940   44      CALM  /  3 1027.8F
$$

LMZ867-665-643>646-212100-
LAKE MICHIGAN

STATION/POSITION TIME  TEMP    WIND        PRES    WAVE
                       AIR SEA DIR/SP/G            HT/PER
                 (UTC) (F)     (DEG/KT/KT) (MB)    (FT/S)
NORTHPORT PIER   1940   46                 1028.4F
KEWAUNEE LAKESHO 1942   41     150/  5/  8 1028.9F
SHEBOYGAN LAKESH 2000   43     170/ 16/ 16 1030.0F
PORT WASHINGTON  1930   46     180/  3/  5 1031.2S
MILWAUKEE LAKESH 1950   45        CALM       N/A
KENOSHA   LAKESH 2000   44                 1030.1
$$

TC  - TEMPERATURE IN CELSIUS
VSB - VISIBILITY IN STATUTE MILES
WCI - WIND CHILL INDEX
HX  - HEAT INDEX





USA.gov is the U.S. government's official web portal to all federal, state and local government web resources and services.